{"data":{"norad_id":64186,"intl_designator":"2025-113S","name":"STARLINK-34200","alt_names":[],"object_type":"PAYLOAD","status":"ACTIVE","operator":null,"country":"US","launch_date":"2025-05-28","launch_site_code":"AFETR","launch_vehicle":null,"mission":null,"orbit_class":"UNKNOWN","rcs_meters":null,"size_class":null,"mass_kg":null,"dimensions":null,"purposes":["comms"],"wikipedia_slug":null,"has_3d_model":false,"image_url":null,"decayed_at":null,"tle_current":{"epoch":"2026-09-20T06:48:02.573568Z","epoch_age_seconds":159175,"freshness":"FRESH","line1":"1 64186U 25113S   26263.28336312  .00007562  00000+0  25530-3 0  9991","line2":"2 64186  53.1582 265.4628 0000973  96.2105 263.9007 15.31687385 74887","mean_motion":15.31687385,"eccentricity":9.73e-5,"inclination_deg":53.1582,"raan_deg":265.4628,"arg_perigee_deg":96.2105,"mean_anomaly_deg":263.9007,"bstar":0.0002553,"rev_number":7488,"period_min":94.013962255098,"perigee_km":470.11120075172,"apogee_km":471.4439995329,"semimajor_km":6848.9146001423,"source":"CELESTRAK","updated_at":"2026-09-21T09:00:35.246120Z"}}}